New Orleans, LA

8:12 PM CDT on September 20, 2017 (GMT -0500)
New Orleans International

Weather History for KMSY - August, 2013

Change the Weather History Date:

Tuesday, August 6, 2013

  Actual Average Record
Temperature  
Mean Temperature 87 °F -  
Max Temperature 96 °F 91 °F 98 °F (1990)
Min Temperature 78 °F 73 °F 70 °F (1969)
Cooling Degree Days 22    
Growing Degree Days 37 (Base 50)    
Moisture  
Dew Point 76 °F    
Average Humidity 72    
Maximum Humidity 94    
Minimum Humidity 41    
Precipitation  
Precipitation 0.00 in - - ()
Sea Level Pressure  
Sea Level Pressure 29.97 in    
Wind  
Wind Speed 5 mph (WSW)    
Max Wind Speed 12 mph    
Max Gust Speed 17 mph    
Visibility 10 miles    
Events      
Averages and records for this station are not official NWS values.
T = Trace of Precipitation, MM = Missing Value Source: NWS Daily Summary

Daily Weather History Graph

Daily Weather History Graph

Search for Another Location

Airport or City:

Trip Planner

Search our weather history database for the weather conditions in past years. The results will help you decide how hot, cold, wet, or windy it might be!

Date:

Astronomy

Aug. 06, 2013 Rise Set
Actual Time 6:23 AM CDT 7:50 PM CDT
Civil Twilight 5:57 AM CDT 8:15 PM CDT
Nautical Twilight 5:26 AM CDT 8:46 PM CDT
Astronomical Twilight 4:55 AM CDT 9:18 PM CDT
Moon 6:10 AM CDT (8/6) 7:31 PM CDT (8/6)
Length of Visible Light 14h 18m
Length of Day
13h 26m
Waning Crescent, 0% of the Moon is Illuminated
Aug 6
Waning Crescent
Aug 6
New
Aug 14
First Quarter
Aug 20
Full
Aug 28
Last Quarter

Hourly Weather History & Observations

Time (CDT) Temp. Heat Index Dew Point Humidity Pressure Visibility Wind Dir Wind Speed Gust Speed Precip Events Conditions
12:53 AM 81.0 °F 87.9 °F 77.0 °F 88% 29.98 in 10.0 mi SW 4.6 mph - N/A   Scattered Clouds
1:53 AM 80.1 °F 85.8 °F 77.0 °F 90% 29.96 in 10.0 mi WSW 4.6 mph - N/A   Scattered Clouds
2:53 AM 80.1 °F 85.8 °F 77.0 °F 90% 29.95 in 10.0 mi WSW 5.8 mph - N/A   Scattered Clouds
3:53 AM 79.0 °F - 77.0 °F 94% 29.96 in 10.0 mi Calm Calm - N/A   Scattered Clouds
4:53 AM 79.0 °F - 77.0 °F 94% 29.97 in 10.0 mi Calm Calm - N/A   Scattered Clouds
5:53 AM 79.0 °F - 75.9 °F 90% 29.98 in 10.0 mi West 3.5 mph - N/A   Scattered Clouds
6:53 AM 78.1 °F - 75.9 °F 93% 30.00 in 10.0 mi Calm Calm - N/A   Scattered Clouds
7:53 AM 82.0 °F 91.0 °F 78.1 °F 88% 30.01 in 10.0 mi West 4.6 mph - N/A   Scattered Clouds
8:53 AM 84.9 °F 96.6 °F 78.1 °F 80% 30.02 in 10.0 mi NW 9.2 mph - N/A   Scattered Clouds
9:53 AM 87.1 °F 98.8 °F 77.0 °F 72% 30.03 in 10.0 mi WNW 8.1 mph - N/A   Scattered Clouds
10:53 AM 89.1 °F 100.2 °F 75.9 °F 65% 30.01 in 10.0 mi West 8.1 mph - N/A   Scattered Clouds
11:53 AM 91.9 °F 103.9 °F 75.9 °F 59% 30.01 in 10.0 mi Variable 6.9 mph - N/A   Scattered Clouds
12:53 PM 91.0 °F 101.6 °F 75.0 °F 59% 29.99 in 10.0 mi West 11.5 mph 17.3 mph N/A   Scattered Clouds
1:53 PM 93.0 °F 103.2 °F 73.9 °F 54% 29.99 in 10.0 mi NNW 6.9 mph - N/A   Scattered Clouds
2:53 PM 93.9 °F 104.0 °F 73.9 °F 52% 29.96 in 10.0 mi Variable 3.5 mph - N/A   Mostly Cloudy
3:53 PM 95.0 °F 104.5 °F 73.0 °F 49% 29.95 in 10.0 mi Variable 5.8 mph - N/A   Mostly Cloudy
4:53 PM 95.0 °F 103.2 °F 72.0 °F 47% 29.94 in 10.0 mi West 5.8 mph - N/A   Mostly Cloudy
5:53 PM 93.9 °F 102.1 °F 72.0 °F 49% 29.93 in 10.0 mi WSW 9.2 mph - N/A   Mostly Cloudy
6:53 PM 91.9 °F 98.4 °F 71.1 °F 50% 29.93 in 10.0 mi WSW 6.9 mph - N/A   Mostly Cloudy
7:53 PM 89.1 °F 103.2 °F 78.1 °F 70% 29.94 in 10.0 mi SSE 8.1 mph - N/A   Mostly Cloudy
8:53 PM 87.1 °F 98.8 °F 77.0 °F 72% 29.95 in 10.0 mi SW 8.1 mph - N/A   Scattered Clouds
9:53 PM 84.9 °F 94.1 °F 75.9 °F 74% 29.96 in 10.0 mi WSW 9.2 mph - N/A   Scattered Clouds
10:53 PM 84.0 °F 92.6 °F 75.9 °F 76% 29.99 in 10.0 mi SW 8.1 mph - N/A   Scattered Clouds
11:53 PM 82.9 °F 91.8 °F 77.0 °F 82% 29.97 in 10.0 mi SW 8.1 mph - N/A   Scattered Clouds